Time,TemperatureF,DewpointF,PressureIn,WindDirection,WindDirectionDegrees,WindSpeedMPH,WindSpeedGustMPH,Humidity,HourlyPrecipIn,Conditions,Clouds,dailyrainin,SoftwareType,DateUTC
2013-08-03 00:02:00,65.0,61.0,29.97,SE,145,0.0,0.0,87,0.00,,,0.54,,2013-08-03 05:02:00,
2013-08-03 00:12:00,65.0,61.0,29.98,SE,145,0.0,0.0,87,0.00,,,0.54,,2013-08-03 05:12:00,
2013-08-03 00:22:00,65.0,61.0,29.98,SE,145,0.0,0.0,88,0.00,,,0.54,,2013-08-03 05:22:00,
2013-08-03 00:32:00,65.0,61.0,29.98,SE,145,0.0,0.0,88,0.00,,,0.54,,2013-08-03 05:32:00,
2013-08-03 00:42:00,65.0,61.0,29.98,SE,145,0.0,0.0,88,0.00,,,0.54,,2013-08-03 05:42:00,
2013-08-03 00:52:00,65.0,61.0,29.98,SE,145,0.0,0.0,88,0.00,,,0.54,,2013-08-03 05:52:00,
2013-08-03 01:02:00,66.0,62.0,29.99,SE,145,0.0,0.0,88,0.00,,,0.54,,2013-08-03 06:02:00,
2013-08-03 01:12:00,65.0,61.0,30.00,SE,145,0.0,0.0,88,0.00,,,0.54,,2013-08-03 06:12:00,
2013-08-03 01:22:00,65.0,61.0,30.00,SE,145,0.0,0.0,88,0.00,,,0.54,,2013-08-03 06:22:00,
2013-08-03 01:33:00,65.0,61.0,30.00,SE,145,0.0,0.0,87,0.00,,,0.54,,2013-08-03 06:33:00,
2013-08-03 01:42:00,65.0,61.0,30.00,SE,145,0.0,0.0,87,0.00,,,0.54,,2013-08-03 06:42:00,
2013-08-03 02:02:00,64.0,60.0,30.00,SE,145,0.0,0.0,87,0.00,,,0.54,,2013-08-03 07:02:00,
2013-08-03 02:12:00,64.0,60.0,30.01,SE,145,0.0,0.0,88,0.00,,,0.54,,2013-08-03 07:12:00,
2013-08-03 02:22:00,64.0,60.0,30.01,SE,145,0.0,0.0,88,0.00,,,0.54,,2013-08-03 07:22:00,
2013-08-03 02:32:00,64.0,60.0,30.01,SE,145,0.0,0.0,88,0.00,,,0.54,,2013-08-03 07:32:00,
2013-08-03 02:43:00,64.0,60.0,30.01,SE,145,0.0,0.0,88,0.00,,,0.54,,2013-08-03 07:43:00,
2013-08-03 03:02:00,64.0,60.0,30.01,SE,145,0.0,0.0,87,0.00,,,0.54,,2013-08-03 08:02:00,
2013-08-03 03:12:00,63.0,59.0,30.01,SE,145,0.0,0.0,88,0.00,,,0.54,,2013-08-03 08:12:00,
2013-08-03 03:22:00,63.0,59.0,30.01,SE,145,0.0,0.0,87,0.00,,,0.54,,2013-08-03 08:22:00,
2013-08-03 03:32:00,63.0,59.0,30.01,SE,145,0.0,0.0,87,0.00,,,0.54,,2013-08-03 08:32:00,
2013-08-03 03:43:00,63.0,59.0,30.01,SE,145,0.0,0.0,87,0.00,,,0.54,,2013-08-03 08:43:00,
2013-08-03 04:02:00,62.0,58.0,30.00,SE,145,0.0,0.0,88,0.00,,,0.54,,2013-08-03 09:02:00,
2013-08-03 04:12:00,62.0,58.0,30.00,SE,145,0.0,0.0,88,0.00,,,0.54,,2013-08-03 09:12:00,
2013-08-03 04:22:00,62.0,58.0,30.00,SE,145,0.0,0.0,88,0.00,,,0.54,,2013-08-03 09:22:00,
2013-08-03 04:32:00,62.0,58.0,29.99,SE,145,0.0,0.0,88,0.00,,,0.54,,2013-08-03 09:32:00,
2013-08-03 04:43:00,62.0,58.0,29.99,SE,145,0.0,0.0,88,0.00,,,0.54,,2013-08-03 09:43:00,
2013-08-03 04:53:00,62.0,58.0,30.00,SE,145,0.0,0.0,88,0.00,,,0.54,,2013-08-03 09:53:00,
2013-08-03 05:02:00,62.0,58.0,30.00,SE,145,0.0,0.0,88,0.00,,,0.54,,2013-08-03 10:02:00,
2013-08-03 05:12:00,61.0,57.0,30.01,SE,145,0.0,0.0,88,0.00,,,0.54,,2013-08-03 10:12:00,
2013-08-03 05:22:00,61.0,57.0,30.00,SE,145,0.0,0.0,88,0.00,,,0.54,,2013-08-03 10:22:00,
2013-08-03 05:32:00,61.0,57.0,30.00,SE,145,0.0,0.0,88,0.00,,,0.54,,2013-08-03 10:32:00,
2013-08-03 05:42:00,61.0,57.0,30.00,SE,145,0.0,0.0,88,0.00,,,0.54,,2013-08-03 10:42:00,
2013-08-03 05:52:00,61.0,57.0,30.00,SE,145,0.0,0.0,88,0.00,,,0.54,,2013-08-03 10:52:00,
2013-08-03 06:02:00,60.0,56.0,30.01,SE,145,0.0,0.0,88,0.00,,,0.54,,2013-08-03 11:02:00,
2013-08-03 06:12:00,60.0,56.0,30.01,SE,145,0.0,0.0,88,0.00,,,0.51,,2013-08-03 11:12:00,
2013-08-03 06:22:00,60.0,56.0,30.02,SE,145,0.0,0.0,88,0.00,,,0.51,,2013-08-03 11:22:00,
2013-08-03 06:32:00,60.0,56.0,30.02,SE,145,0.0,0.0,88,0.00,,,0.51,,2013-08-03 11:32:00,
2013-08-03 06:43:00,60.0,56.0,30.02,SE,145,0.0,0.0,88,0.00,,,0.51,,2013-08-03 11:43:00,
2013-08-03 07:02:00,60.0,57.0,30.03,SE,145,0.0,0.0,89,0.00,,,0.51,,2013-08-03 12:02:00,
2013-08-03 07:12:00,60.0,57.0,30.03,SE,145,0.0,0.0,89,0.00,,,0.51,,2013-08-03 12:12:00,
2013-08-03 07:22:00,60.0,57.0,30.03,SE,145,0.0,0.0,89,0.00,,,0.51,,2013-08-03 12:22:00,
2013-08-03 07:43:00,61.0,58.0,30.03,SE,145,0.0,0.0,89,0.00,,,0.51,,2013-08-03 12:43:00,
2013-08-03 07:52:00,61.0,58.0,30.04,SE,145,0.0,0.0,89,0.00,,,0.51,,2013-08-03 12:52:00,
2013-08-03 08:02:00,61.0,58.0,30.05,SE,145,0.0,0.0,89,0.00,,,0.51,,2013-08-03 13:02:00,
2013-08-03 08:12:00,61.0,58.0,30.06,SE,145,0.0,1.0,89,0.00,,,0.51,,2013-08-03 13:12:00,
2013-08-03 08:33:00,63.0,60.0,30.07,SE,145,0.0,0.0,89,0.00,,,0.51,,2013-08-03 13:33:00,
2013-08-03 08:43:00,63.0,60.0,30.07,SE,145,0.0,0.0,89,0.00,,,0.51,,2013-08-03 13:43:00,
2013-08-03 08:52:00,63.0,60.0,30.07,SE,145,0.0,1.0,89,0.00,,,0.51,,2013-08-03 13:52:00,
2013-08-03 09:02:00,64.0,60.0,30.06,SE,145,0.0,1.0,87,0.00,,,0.51,,2013-08-03 14:02:00,
2013-08-03 09:12:00,65.0,60.0,30.06,SE,145,0.0,1.0,84,0.00,,,0.51,,2013-08-03 14:12:00,
2013-08-03 09:22:00,66.0,59.0,30.06,NNE,15,0.0,1.0,79,0.00,,,0.51,,2013-08-03 14:22:00,
2013-08-03 09:32:00,67.0,60.0,30.07,NNE,12,0.0,2.0,77,0.00,,,0.51,,2013-08-03 14:32:00,
2013-08-03 09:42:00,68.0,60.0,30.07,NNE,12,0.0,1.0,76,0.00,,,0.51,,2013-08-03 14:42:00,
2013-08-03 09:52:00,69.0,61.0,30.07,NW,326,0.0,2.0,76,0.00,,,0.51,,2013-08-03 14:52:00,
2013-08-03 10:02:00,70.0,61.0,30.07,NW,326,0.0,2.0,72,0.00,,,0.51,,2013-08-03 15:02:00,
2013-08-03 10:12:00,70.0,61.0,30.07,NW,325,0.0,3.0,72,0.00,,,0.51,,2013-08-03 15:12:00,
2013-08-03 10:23:00,72.0,61.0,30.08,NW,325,0.0,2.0,68,0.00,,,0.51,,2013-08-03 15:23:00,
2013-08-03 10:32:00,73.0,62.0,30.08,NW,325,0.0,2.0,68,0.00,,,0.51,,2013-08-03 15:32:00,
2013-08-03 10:43:00,74.0,61.0,30.08,NW,325,0.0,3.0,65,0.00,,,0.51,,2013-08-03 15:43:00,
2013-08-03 11:02:00,77.0,63.0,30.08,NW,325,0.0,1.0,62,0.00,,,0.51,,2013-08-03 16:02:00,
2013-08-03 11:12:00,78.0,62.0,30.09,NW,325,0.0,1.0,59,0.00,,,0.51,,2013-08-03 16:12:00,
2013-08-03 11:23:00,78.0,59.0,30.09,ESE,111,0.0,3.0,52,0.00,,,0.51,,2013-08-03 16:23:00,
2013-08-03 11:33:00,78.0,62.0,30.09,ESE,111,0.0,2.0,58,0.00,,,0.51,,2013-08-03 16:33:00,
2013-08-03 11:43:00,79.0,61.0,30.09,NW,306,0.0,2.0,55,0.00,,,0.51,,2013-08-03 16:43:00,
2013-08-03 12:03:00,78.0,62.0,30.09,NW,306,0.0,1.0,59,0.00,,,0.51,,2013-08-03 17:03:00,
2013-08-03 12:12:00,79.0,59.0,30.09,NNW,328,0.0,4.0,51,0.00,,,0.51,,2013-08-03 17:12:00,
2013-08-03 12:32:00,80.0,59.0,30.10,SE,143,0.0,2.0,49,0.00,,,0.51,,2013-08-03 17:32:00,
2013-08-03 12:43:00,80.0,53.0,30.10,SSE,150,0.0,2.0,39,0.00,,,0.51,,2013-08-03 17:43:00,
2013-08-03 12:52:00,81.0,59.0,30.10,West,263,0.0,2.0,47,0.00,,,0.51,,2013-08-03 17:52:00,
2013-08-03 13:02:00,81.0,59.0,30.10,WNW,302,0.0,3.0,48,0.00,,,0.51,,2013-08-03 18:02:00,
2013-08-03 13:12:00,81.0,59.0,30.10,WNW,300,0.0,3.0,48,0.00,,,0.50,,2013-08-03 18:12:00,
2013-08-03 13:22:00,81.0,54.0,30.10,ESE,105,0.0,4.0,40,0.00,,,0.50,,2013-08-03 18:22:00,
2013-08-03 13:32:00,82.0,60.0,30.10,NNE,19,0.0,5.0,48,0.00,,,0.50,,2013-08-03 18:32:00,
2013-08-03 13:43:00,82.0,55.0,30.10,North,351,0.0,2.0,39,0.00,,,0.50,,2013-08-03 18:43:00,
2013-08-03 13:53:00,82.0,59.0,30.10,North,351,0.0,2.0,46,0.00,,,0.50,,2013-08-03 18:53:00,
2013-08-03 14:02:00,82.0,60.0,30.09,SSE,167,0.0,3.0,48,0.00,,,0.50,,2013-08-03 19:02:00,
2013-08-03 14:12:00,82.0,53.0,30.09,NW,320,2.0,4.0,37,0.00,,,0.50,,2013-08-03 19:12:00,
2013-08-03 14:22:00,82.0,60.0,30.10,NNW,342,0.0,2.0,47,0.00,,,0.50,,2013-08-03 19:22:00,
2013-08-03 14:32:00,82.0,57.0,30.10,SE,144,0.0,3.0,43,0.00,,,0.50,,2013-08-03 19:32:00,
2013-08-03 14:43:00,82.0,57.0,30.09,East,79,0.0,2.0,42,0.00,,,0.50,,2013-08-03 19:43:00,
2013-08-03 14:52:00,82.0,60.0,30.09,NNW,338,0.0,5.0,48,0.00,,,0.50,,2013-08-03 19:52:00,
2013-08-03 15:02:00,82.0,57.0,30.09,South,173,0.0,3.0,42,0.00,,,0.50,,2013-08-03 20:02:00,
2013-08-03 15:12:00,82.0,57.0,30.08,WNW,290,0.0,2.0,42,0.00,,,0.50,,2013-08-03 20:12:00,
2013-08-03 15:22:00,82.0,62.0,30.08,West,266,0.0,4.0,51,0.00,,,0.50,,2013-08-03 20:22:00,
2013-08-03 15:32:00,82.0,60.0,30.08,North,9,0.0,4.0,47,0.00,,,0.50,,2013-08-03 20:32:00,
2013-08-03 15:42:00,82.0,59.0,30.08,NNW,327,1.0,4.0,45,0.00,,,0.50,,2013-08-03 20:42:00,
2013-08-03 16:02:00,83.0,58.0,30.07,SSW,200,0.0,1.0,42,0.00,,,0.50,,2013-08-03 21:02:00,
2013-08-03 16:12:00,84.0,58.0,30.08,NNW,340,0.0,2.0,42,0.00,,,0.50,,2013-08-03 21:12:00,
2013-08-03 16:32:00,84.0,56.0,30.08,WNW,296,0.0,3.0,38,0.00,,,0.50,,2013-08-03 21:32:00,
2013-08-03 16:42:00,83.0,58.0,30.08,WNW,296,0.0,1.0,43,0.00,,,0.50,,2013-08-03 21:42:00,
2013-08-03 16:52:00,83.0,59.0,30.08,WNW,296,0.0,1.0,45,0.00,,,0.50,,2013-08-03 21:52:00,
2013-08-03 17:02:00,83.0,58.0,30.08,NW,322,0.0,4.0,43,0.00,,,0.50,,2013-08-03 22:02:00,
2013-08-03 17:12:00,83.0,56.0,30.08,NW,322,0.0,4.0,40,0.00,,,0.50,,2013-08-03 22:12:00,
2013-08-03 17:33:00,83.0,61.0,30.09,WNW,303,0.0,4.0,47,0.00,,,0.50,,2013-08-03 22:33:00,
2013-08-03 17:43:00,83.0,56.0,30.09,NW,304,0.0,3.0,40,0.00,,,0.50,,2013-08-03 22:43:00,
2013-08-03 17:52:00,83.0,59.0,30.09,NW,318,0.0,2.0,44,0.00,,,0.50,,2013-08-03 22:52:00,
2013-08-03 18:02:00,82.0,59.0,30.09,NNW,328,0.0,2.0,46,0.00,,,0.50,,2013-08-03 23:02:00,
2013-08-03 18:12:00,82.0,56.0,30.09,NNW,328,0.0,1.0,41,0.00,,,0.50,,2013-08-03 23:12:00,
2013-08-03 18:22:00,82.0,58.0,30.09,WNW,298,0.0,1.0,44,0.00,,,0.50,,2013-08-03 23:22:00,
2013-08-03 18:32:00,81.0,54.0,30.09,WNW,298,0.0,1.0,39,0.00,,,0.50,,2013-08-03 23:32:00,
2013-08-03 18:42:00,81.0,58.0,30.09,WNW,298,0.0,1.0,46,0.00,,,0.50,,2013-08-03 23:42:00,
2013-08-03 19:02:00,78.0,54.0,30.08,NW,325,1.0,5.0,43,0.00,,,0.50,,2013-08-04 00:02:00,
2013-08-03 19:12:00,77.0,53.0,30.08,NNW,336,0.0,5.0,44,0.00,,,0.07,,2013-08-04 00:12:00,
2013-08-03 19:32:00,76.0,58.0,30.08,NNW,336,0.0,0.0,54,0.00,,,0.07,,2013-08-04 00:32:00,
2013-08-03 19:42:00,76.0,60.0,30.08,NNW,336,0.0,0.0,57,0.00,,,0.07,,2013-08-04 00:42:00,
2013-08-03 20:02:00,74.0,58.0,30.09,NNW,336,0.0,0.0,57,0.00,,,0.07,,2013-08-04 01:02:00,
2013-08-03 20:12:00,74.0,58.0,30.09,NNW,336,0.0,0.0,58,0.00,,,0.07,,2013-08-04 01:12:00,
2013-08-03 20:22:00,73.0,57.0,30.09,NNW,336,0.0,0.0,58,0.00,,,0.07,,2013-08-04 01:22:00,
2013-08-03 20:32:00,72.0,58.0,30.09,NNW,336,0.0,0.0,61,0.00,,,0.01,,2013-08-04 01:32:00,
2013-08-03 20:42:00,69.0,58.0,30.09,NNW,336,0.0,0.0,67,0.00,,,0.01,,2013-08-04 01:42:00,
2013-08-03 20:53:00,69.0,58.0,30.09,NNW,336,0.0,0.0,68,0.00,,,0.01,,2013-08-04 01:53:00,
2013-08-03 21:02:00,69.0,58.0,30.09,NNW,336,0.0,0.0,68,0.00,,,0.01,,2013-08-04 02:02:00,
2013-08-03 21:12:00,69.0,58.0,30.09,NNW,336,0.0,0.0,68,0.00,,,0.01,,2013-08-04 02:12:00,
2013-08-03 21:22:00,68.0,58.0,30.09,NNW,336,0.0,0.0,70,0.00,,,0.01,,2013-08-04 02:22:00,
2013-08-03 21:32:00,68.0,58.0,30.10,NNW,336,0.0,0.0,71,0.00,,,0.01,,2013-08-04 02:32:00,
2013-08-03 21:42:00,67.0,58.0,30.10,NNW,336,0.0,0.0,73,0.00,,,0.00,,2013-08-04 02:42:00,
2013-08-03 21:52:00,65.0,58.0,30.11,NNW,336,0.0,0.0,79,0.00,,,0.00,,2013-08-04 02:52:00,
2013-08-03 22:02:00,65.0,58.0,30.11,NNW,336,0.0,0.0,79,0.00,,,0.00,,2013-08-04 03:02:00,
2013-08-03 22:12:00,64.0,58.0,30.11,NNW,336,0.0,0.0,80,0.00,,,0.00,,2013-08-04 03:12:00,
2013-08-03 22:22:00,64.0,58.0,30.12,NNW,336,0.0,0.0,80,0.00,,,0.00,,2013-08-04 03:22:00,
2013-08-03 22:32:00,64.0,58.0,30.12,NNW,336,0.0,0.0,81,0.00,,,0.00,,2013-08-04 03:32:00,
2013-08-03 22:42:00,64.0,58.0,30.12,NNW,336,0.0,0.0,81,0.00,,,0.00,,2013-08-04 03:42:00,
2013-08-03 22:52:00,63.0,57.0,30.12,NNW,336,0.0,0.0,82,0.00,,,0.00,,2013-08-04 03:52:00,
2013-08-03 23:02:00,63.0,58.0,30.12,NNW,336,0.0,0.0,83,0.00,,,0.00,,2013-08-04 04:02:00,
2013-08-03 23:11:00,63.0,58.0,30.12,NNW,336,0.0,0.0,83,0.00,,,0.00,,2013-08-04 04:11:00,
2013-08-03 23:22:00,62.0,57.0,30.13,NNW,336,0.0,0.0,83,0.00,,,0.00,,2013-08-04 04:22:00,
2013-08-03 23:32:00,62.0,57.0,30.13,NNW,336,0.0,0.0,83,0.00,,,0.00,,2013-08-04 04:32:00,
2013-08-03 23:42:00,62.0,57.0,30.13,NNW,336,0.0,0.0,83,0.00,,,0.00,,2013-08-04 04:42:00,
2013-08-03 23:52:00,62.0,57.0,30.13,NNW,336,0.0,0.0,83,0.00,,,0.00,,2013-08-04 04:52:00,